Location: Banios
(43.0451°N, 0.2335°E)
Time: 19:22:12
(UTC+00:00)

A-11 Canister half - Pass Details

Date: 11 December 2021
Orbit: 1516 x 1684 km, 47.2° (Epoch: 23 January)

Event Time Altitude Azimuth Distance (km) Brightness Sun altitude
Exits shadow 02:38:40 17° 136° (SE) 3,219 10.8 -50.3°
Maximum altitude 02:40:11 18° 124° (SE) 3,186 10.8 -50.1°
Drops below altitude 10° 02:45:53 10° 87° (E) 3,799 11.5 -49.1°
Sets 02:50:22 0° 70° (ENE) 4,822 12.3 -48.3°
